Weather History for St. Petersburg Airport, FL

Change the Weather History Date:

Wednesday, October 9, 2013

  Actual Average Record
Temperature  
Mean Temperature 76 °F -  
Max Temperature 81 °F 85 °F 91 °F (1986)
Min Temperature 71 °F 71 °F 55 °F (2000)
Cooling Degree Days 10    
Growing Degree Days 26 (Base 50)    
Moisture  
Dew Point 68 °F    
Average Humidity 79    
Maximum Humidity 88    
Minimum Humidity 62    
Precipitation  
Precipitation 0.00 in - - ()
Sea Level Pressure  
Sea Level Pressure 30.01 in    
Wind  
Wind Speed 9 mph (NE)    
Max Wind Speed 13 mph    
Max Gust Speed 21 mph    
Visibility 10 miles    
Events      
Averages and records for this station are not official NWS values.
T = Trace of Precipitation, MM = Missing Value Source: NWS Daily Summary

Daily Weather History Graph

Daily Weather History Graph

Search for Another Location

Airport:

Trip Planner

Search our weather history database for the weather conditions in past years. The results will help you decide how hot, cold, wet, or windy it might be!

Date:

Astronomy

Oct. 09, 2013 Rise Set
Actual Time 7:27 AM EDT 7:07 PM EDT
Civil Twilight 7:04 AM EDT 7:31 PM EDT
Nautical Twilight 6:37 AM EDT 7:58 PM EDT
Astronomical Twilight 6:09 AM EDT 8:25 PM EDT
Moon 12:02 PM EDT (10/9) 11:00 PM EDT (10/9)
Length of Visible Light 12h 26m
Length of Day
11h 39m
Waxing Crescent, 25% of the Moon is Illuminated
Oct 9
Waxing Crescent
Oct 11
First Quarter
Oct 18
Full
Oct 26
Last Quarter
Nov 3
New

Hourly Weather History & Observations

Time (EDT) Temp. Heat Index Dew Point Humidity Pressure Visibility Wind Dir Wind Speed Gust Speed Precip Events Conditions
12:53 AM 75.9 °F - 70.0 °F 82% 29.97 in 10.0 mi NE 10.4 mph - N/A   Overcast
1:53 AM 75.0 °F - 69.1 °F 82% 29.97 in 10.0 mi NE 11.5 mph - N/A   Overcast
2:53 AM 75.0 °F - 69.1 °F 82% 29.97 in 10.0 mi ENE 10.4 mph 17.3 mph N/A   Overcast
3:53 AM 75.0 °F - 69.1 °F 82% 29.97 in 10.0 mi NE 8.1 mph - N/A   Overcast
4:04 AM 73.4 °F - 69.8 °F 88% 29.96 in 10.0 mi NNE 10.4 mph - N/A   Overcast
4:53 AM 73.9 °F - 68.0 °F 82% 29.96 in 10.0 mi NNE 8.1 mph - N/A   Overcast
5:53 AM 73.9 °F - 68.0 °F 82% 29.98 in 10.0 mi NE 8.1 mph - N/A   Overcast
6:53 AM 73.0 °F - 66.9 °F 81% 29.99 in 10.0 mi NE 9.2 mph - N/A   Overcast
7:50 AM 73.4 °F - 66.2 °F 78% 30.01 in 10.0 mi NNE 10.4 mph - N/A   Overcast
7:53 AM 73.0 °F - 66.9 °F 81% 30.01 in 10.0 mi NNE 6.9 mph - N/A   Overcast
8:05 AM 73.4 °F - 66.2 °F 78% 30.02 in 10.0 mi ENE 8.1 mph - N/A   Overcast
8:24 AM 71.6 °F - 66.2 °F 83% 30.02 in 10.0 mi NNE 8.1 mph - N/A   Overcast
8:53 AM 73.0 °F - 66.9 °F 81% 30.02 in 10.0 mi NE 10.4 mph - N/A   Overcast
9:53 AM 73.0 °F - 66.9 °F 81% 30.05 in 10.0 mi NNE 8.1 mph - N/A   Overcast
10:53 AM 73.0 °F - 66.9 °F 81% 30.06 in 10.0 mi NE 9.2 mph - N/A   Overcast
11:53 AM 73.0 °F - 66.9 °F 81% 30.06 in 10.0 mi NNE 6.9 mph - N/A   Overcast
12:41 PM 73.4 °F - 68.0 °F 83% 30.05 in 10.0 mi NE 5.8 mph - N/A   Overcast
12:53 PM 73.9 °F - 66.9 °F 79% 30.05 in 10.0 mi NE 6.9 mph - N/A   Overcast
1:53 PM 77.0 °F - 68.0 °F 74% 30.04 in 10.0 mi East 6.9 mph - N/A   Mostly Cloudy
2:53 PM 78.1 °F - 68.0 °F 71% 30.01 in 10.0 mi North 4.6 mph - N/A   Overcast
3:53 PM 79.0 °F - 66.9 °F 66% 30.00 in 10.0 mi Variable 3.5 mph - N/A   Mostly Cloudy
4:53 PM 80.1 °F 82.1 °F 66.0 °F 62% 30.00 in 10.0 mi NE 3.5 mph - N/A   Mostly Cloudy
5:53 PM 79.0 °F - 69.1 °F 72% 29.99 in 10.0 mi NNW 6.9 mph - N/A   Overcast
6:53 PM 78.1 °F - 69.1 °F 74% 30.00 in 10.0 mi North 5.8 mph - N/A   Overcast
7:00 PM 77.0 °F - 68.0 °F 74% 30.00 in 10.0 mi North 4.6 mph - N/A   Mostly Cloudy
7:53 PM 75.9 °F - 69.1 °F 79% 30.00 in 10.0 mi NNE 6.9 mph - N/A   Partly Cloudy
8:53 PM 75.0 °F - 68.0 °F 79% 30.01 in 10.0 mi NE 12.7 mph - N/A   Mostly Cloudy
9:53 PM 73.0 °F - 66.9 °F 81% 30.04 in 10.0 mi ENE 12.7 mph 20.7 mph N/A   Clear
10:53 PM 71.1 °F - 66.0 °F 84% 30.05 in 10.0 mi NE 10.4 mph - N/A   Clear
11:53 PM 71.1 °F - 64.9 °F 81% 30.05 in 10.0 mi NE 11.5 mph - N/A   Clear